STARLINK-1454, 45671

Orbit data source: Space-Track

STARLINK-1454, 45671 is a payload satellite owned by SpaceX/Seattle (US) in LEO that was launched on Thu, 04 Jun 2020 UTC via an FALCON 9 launch vehicle from the Air Force Eastern Test Range (AFETR). Payload-class satellites include a variety of spacecraft equipped with specific instruments for various scientific and technological missions. These include communications satellites like Starlink; space stations such as the ISS; scientific satellites like the Hubble; Earth observation satellites from companies like Planet Labs, Umbra, and HawkEye 360; GPS; miniature CubeSats for education and research; and military/defense satellites.

Loading next visibility...
Identifier
45671, 2020-035Q
Orbit
LEO
Country
Flag of USUS
Related business
Manufacturer
SpaceX/Seattle
Mission
Operational Commercial Communications
Bus & Motor
STARLINK, Unknown motor
Mass
260 kg wet, ~248 kg dry
Launch date (UTC)
2020-06-04 (5 years ago)
Launch vehicle
FALCON 9
Launch site
Air Force Eastern Test Range (AFETR)
Object type
Payload
Rocket body
Debris
Shape & HBR
Box + 1 Pan, 10.1 m
Radar Cross Section
13.562 m², Large (>1 m²)

Expand to show TLE details & history
Last TLE update: 17 hours ago

TLE from 17 hours ago
0 STARLINK-1454
1 45671U 20035Q   25310.57983140  .00008519  00000-0  58995-3 0  9993
2 45671  53.0561 259.2814 0001609  90.2688 269.8485 15.06409255300164
Epoch: 2025-11-06T13:54Z
TLE epoch observation values (Epoch: 2025-11-06T13:54:57.432Z)
Latitude
-0.00008°
Longitude
4.50593°
Altitude
548.066 km
Speed
7.589 km/s
True Right ascension
17h 17m 07s
True Declination
0° 00' 00"
Sunlit
Object was in daylight at epoch
Visualization orbit readout
Latitude
Unknown
Longitude
Unknown
Altitude
Unknown
Speed
Unknown
Apparent Right ascension
Unknown
Apparent Declination
Unknown
Sunlit
N/A
Visualization observer readout
Local Sidereal Time
03:00:18
Azimuth
Unknown
Elevation
Unknown
Doppler factor
Unknown
Orbital elements
Apogee altitude
548.568 km
Perigee altitude
546.339 km
Semi-major axis
6,925.591 km
Eccentricity
0.00016
Inclination
53.0561°
RAAN
259.2814°
Arg. of periapsis
90.2688°
True anomaly
269.83006°
Mean anomaly
269.8485°
Eccentric anomaly
269.83928°
Mean motion
3.76581 °/min
Orbital period
95.6 mins
BSTAR
0.00058995
Loading maneuver chart data...
Computing Atmospheric mass density...
Loading historical data...
Loading historical data...
Loading historical data...
Loading historical data...
Loading historical data...
Loading historical data...
Loading historical data...

Documentation

Showing up to 5 results
|